This is the latest recevied weather packets stored in our database for station/object K8JMX-13. If no packets are shown the sender has not sent any weather packets the latest 10 day(s).
| Time | Temp. | Humidity | Pressure | Rain* | Wind** | Luminosity | Snow |
|---|---|---|---|---|---|---|---|
| 1777488858 | 13.89° C | 89% | 1007.5 hPa | 1.78 mm | - | 142 W/m² | - |
| 1777488555 | 13.33° C | 89% | 1007.6 hPa | 0 mm | - | 136 W/m² | - |
| 1777488253 | 13.33° C | 89% | 1007.7 hPa | 0 mm | - | 70 W/m² | - |
| 1777487951 | 13.33° C | 89% | 1007.7 hPa | 0 mm | - | 62 W/m² | - |
| 1777487648 | 13.33° C | 89% | 1007.7 hPa | 0 mm | - | 81 W/m² | - |
| 1777487345 | 13.33° C | 89% | 1007.7 hPa | 0 mm | - | 53 W/m² | - |
| 1777487043 | 13.33° C | 89% | 1007.7 hPa | 0 mm | - | 44 W/m² | - |
| 1777486738 | 13.33° C | 89% | 1007.7 hPa | 0 mm | - | 47 W/m² | - |
| 1777486436 | 13.33° C | 89% | 1007.8 hPa | 0 mm | - | 44 W/m² | - |
| 1777486134 | 13.33° C | 90% | 1007.8 hPa | 0 mm | - | 76 W/m² | - |
| 1777485830 | 13.33° C | 90% | 1007.7 hPa | 0 mm | - | 164 W/m² | - |
| 1777485526 | 13.33° C | 90% | 1007.8 hPa | 0 mm | - | 77 W/m² | - |
| 1777485222 | 13.89° C | 90% | 1007.6 hPa | 0 mm | - | 105 W/m² | - |
| 1777484919 | 13.89° C | 91% | 1007.4 hPa | 0 mm | - | 117 W/m² | - |
| 1777484616 | 13.33° C | 91% | 1007.4 hPa | 1.27 mm | - | 265 W/m² | - |
| 1777484312 | 13.89° C | 91% | 1007.4 hPa | 1.27 mm | - | 237 W/m² | - |
| 1777484008 | 13.33° C | 91% | 1007.6 hPa | 1.78 mm | - | 188 W/m² | - |
| 1777483705 | 12.78° C | 91% | 1007.4 hPa | 1.78 mm | - | 136 W/m² | - |
| 1777483401 | 13.33° C | 91% | 1007.8 hPa | 3.05 mm | - | 56 W/m² | - |
| 1777483096 | 13.33° C | 91% | 1007.9 hPa | 3.05 mm | - | 108 W/m² | - |
| 1777482794 | 13.33° C | 91% | 1008 hPa | 3.05 mm | - | 98 W/m² | - |
| 1777482489 | 13.33° C | 91% | 1007.8 hPa | 1.78 mm | - | 105 W/m² | - |
| 1777482187 | 13.33° C | 91% | 1007.9 hPa | 1.78 mm | - | 124 W/m² | - |
| 1777481884 | 13.33° C | 91% | 1007.8 hPa | 1.78 mm | - | 152 W/m² | - |
| 1777481581 | 13.33° C | 91% | 1008 hPa | 1.27 mm | - | 97 W/m² | - |
* Rain latest hour (hover to see other rain measurements)
** Current wind speed in m/s (hover to see current wind gust speed)